This demonstration page uses our WeatherBlox Daily Observations layout. Learn more.

Left ArrowRight Arrow

Hourly Observations for July 10, 2016

Temp ( °F °C ) Dew Point ( °F °C ) Humidity (%) Winds ( mph kmh ) Pressure ( in mb ) Visibility ( mi km ) Precip ( " mm )
12:53 am 00:53 Clear 78 25.6 70 21.1 76 76 SSE 8 13 29.88 1012 10 16 0.00 0.00
1:53 am 01:53 Clear 75 23.9 70 21.1 84 84 S 9 15 29.85 1011 10 16 0.00 0.00
2:53 am 02:53 Clear 75 23.9 70 21.1 84 84 S 8 13 29.84 1011 10 16 0.00 0.00
3:53 am 03:53 Clear 74 23.3 70 21.1 88 88 S 8 13 29.83 1010 10 16 0.00 0.00
4:53 am 04:53 Clear 73 22.8 70 21.1 90 90 S 7 11 29.82 1010 10 16 0.00 0.00
5:53 am 05:53 Clear 72 22.2 70 21.1 94 94 S 9 15 29.83 1010 10 16 0.00 0.00
6:53 am 06:53 Sunny 71 21.7 70 21.1 96 96 S 10 17 29.83 1010 10 16 0.00 0.00
7:53 am 07:53 Sunny 74 23.3 70 21.1 88 88 S 12 19 29.83 1010 10 16 0.00 0.00
8:53 am 08:53 Sunny 78 25.6 71 21.7 79 79 S 13 20 29.81 1010 10 16 0.00 0.00
9:53 am 09:53 Sunny 82 27.8 72 22.2 72 72 S 10 17 29.79 1009 10 16 0.00 0.00
10:53 am 10:53 Sunny 85 29.4 71 21.7 63 63 S 15 24 29.76 1008 10 16 0.00 0.00
11:53 am 11:53 Sunny 87 30.6 72 22.2 61 61 S 18 30 29.76 1008 10 16 0.00 0.00
12:53 pm 12:53 Sunny 90 32.2 71 21.7 54 54 S 18 30 29.74 1007 10 16 0.00 0.00
1:53 pm 13:53 Sunny 93 33.9 70 21.1 47 47 S 18 30 29.72 1006 10 16 0.00 0.00
2:53 pm 14:53 Sunny 94 34.4 69 20.6 44 44 S 21 33 29.70 1006 10 16 0.00 0.00
3:53 pm 15:53 Sunny 96 35.6 69 20.6 41 41 S 20 31 29.70 1006 10 16 0.00 0.00
4:53 pm 16:53 Sunny 95 35 69 20.6 43 43 S 20 31 29.67 1005 10 16 0.00 0.00
5:53 pm 17:53 Sunny 94 34.4 69 20.6 44 44 S 16 26 29.67 1005 10 16 0.00 0.00
6:53 pm 18:53 Sunny 92 33.3 70 21.1 49 49 SSE 18 30 29.65 1004 10 16 0.00 0.00
7:53 pm 19:53 Sunny 90 32.2 70 21.1 52 52 SSE 15 24 29.65 1004 10 16 0.00 0.00
8:53 pm 20:53 Sunny 87 30.6 70 21.1 57 57 SSE 16 26 29.65 1004 10 16 0.00 0.00
9:53 pm 21:53 Clear 85 29.4 70 21.1 61 61 SSE 16 26 29.65 1004 10 16 0.00 0.00
10:53 pm 22:53 Clear 83 28.3 69 20.6 63 63 SSE 17 28 29.65 1004 10 16 0.00 0.00
11:53 pm 23:53 Clear 82 27.8 68 20 63 63 SSE 18 30 29.66 1004 10 16 0.00 0.00

Powered by AerisWeather